When you browse on this site, cookies collect data to enhance your experience and personalize the content and advertising you see.
Visit our Privacy Policy to learn more. By continuing to use the site, you agree to this use of cookies and data.
  • In United Kingdom
  • List of Countries
  • For 7 days
  • Water Temperature
  • Weather Map
  • Weather Widgets
  • user-avatar
    Login

    Hourly Weather Tata

    Today, 19 October, Saturday

    Time Temperature Precipitation Wind Pressure Humidity
    00:00 +14°C° 0 mm 1 mps 750 mmHg 87%
    01:00 +14°C° 0 mm 1 mps 750 mmHg 88%
    02:00 +14°C° 0 mm 1 mps 750 mmHg 89%
    03:00 +13°C° 0 mm 1 mps 750 mmHg 90%
    04:00 +13°C° 0 mm 1 mps 750 mmHg 91%
    05:00 +13°C° 0 mm 2 mps 750 mmHg 91%
    06:00 +13°C° 0 mm 2 mps 750 mmHg 90%
    07:00 +13°C° 0 mm 2 mps 750 mmHg 90%
    08:00 +14°C° 0 mm 3 mps 750 mmHg 80%
    09:00 +17°C° 0 mm 4 mps 750 mmHg 70%
    10:00 +19°C° 0 mm 4 mps 750 mmHg 60%
    11:00 +20°C° 0 mm 5 mps 749 mmHg 53%
    12:00 +22°C° 0 mm 6 mps 749 mmHg 47%
    13:00 +23°C° 0 mm 6 mps 749 mmHg 41%
    14:00 +23°C° 0 mm 6 mps 749 mmHg 43%
    15:00 +22°C° 0 mm 5 mps 748 mmHg 45%
    16:00 +21°C° 0 mm 4 mps 748 mmHg 48%
    17:00 +20°C° 0 mm 4 mps 748 mmHg 51%
    18:00 +19°C° 0 mm 4 mps 748 mmHg 55%
    19:00 +18°C° 0 mm 4 mps 748 mmHg 59%
    20:00 +17°C° 0 mm 4 mps 749 mmHg 61%
    21:00 +17°C° 0 mm 4 mps 749 mmHg 63%
    22:00 +17°C° 0 mm 3 mps 749 mmHg 65%
    23:00 +15°C° 0 mm 4 mps 749 mmHg 67%

    Tomorrow, 20 October, Sunday

    Time Temperature Precipitation Wind Pressure Humidity
    00:00 +15°C° 0 mm 4 mps 749 mmHg 70%
    01:00 +15°C° 0 mm 4 mps 749 mmHg 72%
    02:00 +14°C° 0 mm 3 mps 749 mmHg 76%
    03:00 +14°C° 0 mm 3 mps 749 mmHg 79%
    04:00 +14°C° 0 mm 3 mps 749 mmHg 83%
    05:00 +14°C° 0 mm 3 mps 749 mmHg 83%
    06:00 +14°C° 0 mm 4 mps 750 mmHg 83%
    07:00 +14°C° 0 mm 4 mps 750 mmHg 83%
    08:00 +17°C° 0 mm 4 mps 750 mmHg 74%
    09:00 +19°C° 0 mm 5 mps 750 mmHg 65%
    10:00 +21°C° 0 mm 6 mps 751 mmHg 57%
    11:00 +22°C° 0 mm 6 mps 750 mmHg 53%
    12:00 +23°C° 0 mm 6 mps 750 mmHg 49%
    13:00 +24°C° 0 mm 7 mps 750 mmHg 44%
    14:00 +24°C° 0 mm 6 mps 749 mmHg 46%
    15:00 +23°C° 0 mm 5 mps 749 mmHg 48%
    16:00 +23°C° 0 mm 5 mps 749 mmHg 50%
    17:00 +22°C° 0 mm 5 mps 749 mmHg 54%
    18:00 +21°C° 0 mm 5 mps 749 mmHg 57%
    19:00 +19°C° 0 mm 5 mps 749 mmHg 61%
    20:00 +19°C° 0 mm 5 mps 749 mmHg 62%
    21:00 +19°C° 0 mm 5 mps 750 mmHg 63%
    22:00 +18°C° 0 mm 4 mps 750 mmHg 64%
    23:00 +17°C° 0 mm 5 mps 750 mmHg 66%

    Day after tomorrow, 21 October, Monday

    Time Temperature Precipitation Wind Pressure Humidity
    00:00 +17°C° 0 mm 5 mps 750 mmHg 67%
    01:00 +16°C° 0 mm 5 mps 750 mmHg 68%
    02:00 +17°C° 0 mm 4 mps 750 mmHg 71%
    03:00 +17°C° 0 mm 4 mps 750 mmHg 73%
    04:00 +15°C° 0 mm 4 mps 750 mmHg 76%
    05:00 +16°C° 0 mm 3 mps 750 mmHg 78%
    06:00 +16°C° 0 mm 3 mps 750 mmHg 79%
    07:00 +16°C° 0 mm 3 mps 751 mmHg 81%
    08:00 +18°C° 0 mm 3 mps 751 mmHg 73%
    09:00 +20°C° 0 mm 3 mps 751 mmHg 65%
    10:00 +22°C° 0 mm 4 mps 751 mmHg 57%
    11:00 +23°C° 0 mm 4 mps 751 mmHg 53%
    12:00 +26°C° 0 mm 4 mps 751 mmHg 48%
    13:00 +27°C° 0 mm 5 mps 751 mmHg 44%
    14:00 +26°C° 0 mm 4 mps 751 mmHg 46%
    15:00 +26°C° 0 mm 4 mps 751 mmHg 47%
    16:00 +25°C° 0 mm 4 mps 750 mmHg 49%
    17:00 +24°C° 0 mm 3 mps 751 mmHg 53%
    18:00 +21°C° 0 mm 3 mps 751 mmHg 58%
    19:00 +20°C° 0 mm 3 mps 751 mmHg 63%
    20:00 +19°C° 0 mm 3 mps 752 mmHg 66%
    21:00 +18°C° 0 mm 2 mps 752 mmHg 70%
    22:00 +18°C° 0 mm 2 mps 752 mmHg 73%
    23:00 +17°C° 0 mm 2 mps 752 mmHg 76%

    22 October, Tuesday

    Time Temperature Precipitation Wind Pressure Humidity
    00:00 +16°C° 0 mm 2 mps 752 mmHg 79%
    01:00 +16°C° 0 mm 1 mps 753 mmHg 81%
    02:00 +15°C° 0 mm 1 mps 753 mmHg 84%
    03:00 +15°C° 0 mm 1 mps 753 mmHg 86%
    04:00 +14°C° 0 mm 1 mps 753 mmHg 89%
    05:00 +14°C° 0 mm 1 mps 754 mmHg 89%
    06:00 +14°C° 0 mm 1 mps 754 mmHg 90%
    07:00 +14°C° 0 mm 1 mps 754 mmHg 90%
    08:00 +16°C° 0 mm 1 mps 754 mmHg 82%
    09:00 +19°C° 0 mm 1 mps 755 mmHg 74%
    10:00 +19°C° 0 mm 2 mps 755 mmHg 67%
    11:00 +20°C° 0 mm 2 mps 755 mmHg 63%
    12:00 +22°C° 0 mm 1 mps 755 mmHg 58%
    13:00 +24°C° 0 mm 1 mps 755 mmHg 54%
    14:00 +23°C° 0 mm 1 mps 755 mmHg 56%
    15:00 +23°C° 0 mm 1 mps 754 mmHg 59%
    16:00 +22°C° 0 mm 1 mps 754 mmHg 61%
    17:00 +21°C° 0 mm 1 mps 754 mmHg 66%
    18:00 +18°C° 0 mm 0 mps 754 mmHg 71%
    19:00 +16°C° 0 mm 0 mps 754 mmHg 75%
    20:00 +16°C° 0 mm 0 mps 755 mmHg 77%
    21:00 +15°C° 0 mm 0 mps 755 mmHg 79%
    22:00 +15°C° 0 mm 0 mps 755 mmHg 81%
    23:00 +15°C° 0 mm 0 mps 755 mmHg 82%

    23 October, Wednesday

    Time Temperature Precipitation Wind Pressure Humidity
    00:00 +16°C° 0 mm 1 mps 754 mmHg 83%
    01:00 +15°C° 0 mm 1 mps 754 mmHg 84%
    02:00 +15°C° 0 mm 1 mps 754 mmHg 84%
    03:00 +15°C° 0 mm 1 mps 754 mmHg 84%
    04:00 +15°C° 0 mm 2 mps 754 mmHg 85%
    05:00 +15°C° 0 mm 2 mps 754 mmHg 84%
    06:00 +15°C° 0 mm 2 mps 754 mmHg 84%
    07:00 +14°C° 0 mm 2 mps 754 mmHg 83%
    08:00 +16°C° 0 mm 2 mps 754 mmHg 74%
    09:00 +19°C° 0 mm 3 mps 754 mmHg 64%
    10:00 +21°C° 0 mm 3 mps 753 mmHg 54%
    11:00 +22°C° 0 mm 3 mps 753 mmHg 51%
    12:00 +24°C° 0 mm 3 mps 753 mmHg 48%
    13:00 +25°C° 0 mm 3 mps 753 mmHg 45%
    14:00 +24°C° 0 mm 3 mps 752 mmHg 47%
    15:00 +22°C° 0 mm 3 mps 752 mmHg 49%
    16:00 +21°C° 0 mm 2 mps 752 mmHg 52%
    17:00 +20°C° 0 mm 2 mps 752 mmHg 55%
    18:00 +19°C° 0 mm 2 mps 752 mmHg 59%
    19:00 +17°C° 0 mm 2 mps 752 mmHg 62%
    20:00 +17°C° 0 mm 2 mps 752 mmHg 63%
    21:00 +17°C° 0 mm 2 mps 752 mmHg 63%
    22:00 +16°C° 0 mm 2 mps 752 mmHg 64%
    23:00 +16°C° 0 mm 2 mps 751 mmHg 64%

    24 October, Thursday

    Time Temperature Precipitation Wind Pressure Humidity
    00:00 +14°C° 0 mm 3 mps 751 mmHg 64%
    01:00 +14°C° 0 mm 3 mps 751 mmHg 64%
    02:00 +13°C° 0 mm 3 mps 751 mmHg 64%
    03:00 +13°C° 0 mm 3 mps 751 mmHg 63%
    04:00 +13°C° 0 mm 3 mps 751 mmHg 62%
    05:00 +13°C° 0 mm 3 mps 751 mmHg 62%
    06:00 +12°C° 0 mm 3 mps 750 mmHg 62%
    07:00 +12°C° 0 mm 3 mps 750 mmHg 62%
    08:00 +14°C° 0 mm 3 mps 750 mmHg 56%
    09:00 +17°C° 0 mm 4 mps 750 mmHg 50%
    10:00 +19°C° 0 mm 5 mps 750 mmHg 43%
    11:00 +20°C° 0 mm 5 mps 750 mmHg 40%
    12:00 +21°C° 0 mm 5 mps 750 mmHg 38%
    13:00 +22°C° 0 mm 5 mps 750 mmHg 35%
    14:00 +22°C° 0 mm 4 mps 750 mmHg 37%
    15:00 +21°C° 0 mm 4 mps 749 mmHg 39%
    16:00 +21°C° 0 mm 3 mps 749 mmHg 41%
    17:00 +19°C° 0 mm 3 mps 749 mmHg 44%
    18:00 +18°C° 0 mm 3 mps 749 mmHg 46%
    19:00 +17°C° 0 mm 3 mps 749 mmHg 48%
    20:00 +17°C° 0 mm 3 mps 749 mmHg 49%
    21:00 +16°C° 0 mm 3 mps 750 mmHg 50%
    22:00 +16°C° 0 mm 3 mps 750 mmHg 51%
    23:00 +14°C° 0 mm 3 mps 750 mmHg 51%
    Show more